GFSFLT2_sfc_rhum_000.txt.gz
RH
94 98 96 96 96 96 96 95 94 94 92 89 86 87 84 74 72 73 73 72 73 74 76 78 77 80 82 85 86 83 86 85
82 86 94 99 98 97 95 94 94 93 92 91 89 88 85 82 82 77 78 79 78 78 78 79 81 83 84 87 88 73 77 81
91 90 98 99 98 97 94 93 92 92 91 89 92 94 92 91 88 87 83 84 83 83 84 84 85 88 86 87 85 78 71 73
94 99 98 98 93 98 98 95 96 96 95 94 96 94 94 90 90 87 88 89 90 90 90 90 92 97 97 89 90 83 71 68
98 97 97 98 96 99 99 99 98 97 94 94 94 94 96 97 98 97 96 91 97 94 95 96 94 96 96 95 92 87 79 70
94 95 96 96 96 98 97 98 97 98 97 94 96 97 95 93 96 89 85 86 82 87 92 90 90 85 80 85 88 87 80 72
88 92 93 92 92 96 96 96 97 96 96 94 95 94 86 86 82 81 81 84 85 83 82 80 79 77 75 77 77 76 74 72
84 89 87 80 84 89 96 96 95 96 97 90 81 85 82 79 72 72 75 82 80 82 83 82 79 75 67 71 69 70 69 74
86 91 90 92 89 91 95 94 89 92 89 83 81 75 70 68 66 67 72 78 75 73 74 69 69 64 64 65 62 66 67 79
90 84 93 94 94 96 96 91 93 94 93 87 73 60 62 65 74 73 75 74 69 72 75 64 72 71 68 64 64 66 67 83
95 92 91 94 95 94 87 82 81 83 83 71 61 59 60 67 72 75 69 68 71 68 70 71 74 72 63 64 64 68 78 77
93 90 88 85 86 89 86 84 83 87 75 63 54 53 58 63 68 70 67 67 71 71 69 72 73 80 61 58 66 65 84 90
82 83 84 81 82 82 79 80 85 72 66 62 60 57 60 65 71 72 72 71 75 76 77 77 74 90 82 71 74 70 79 83
77 74 72 66 74 84 83 85 75 68 60 61 64 63 62 63 74 77 75 74 80 85 86 83 85 94 94 95 88 80 77 68
55 58 58 64 75 74 68 67 69 62 69 62 65 65 65 67 73 76 78 80 86 91 90 89 94 92 93 94 95 97 93 78
50 51 51 52 56 57 56 64 65 77 70 63 66 66 65 65 70 76 78 83 86 88 82 85 89 86 90 75 87 90 96 92
56 52 52 54 58 66 71 68 76 75 67 62 60 65 66 67 70 74 77 83 82 82 80 79 84 85 90 93 93 92 90 96
57 60 64 64 64 66 65 67 66 61 64 67 68 68 72 73 72 80 82 82 81 81 80 82 85 87 90 90 94 95 95 94
59 59 59 60 62 61 60 56 54 60 66 73 74 74 77 81 82 84 83 80 77 75 74 76 77 78 81 83 89 88 95 95
55 55 55 58 62 62 64 66 72 74 77 76 74 80 82 85 82 75 74 69 74 73 71 79 79 80 77 84 88 89 91 91

GFSFLT2_sfc_rhum_003.txt.gz
RH
75 71 81 95 95 96 95 92 93 92 91 89 87 85 82 76 76 77 77 75 76 77 77 80 80 83 86 89 92 80 41 38
72 74 72 77 80 97 97 95 94 93 91 90 88 86 82 81 82 78 79 83 82 81 82 83 84 88 90 90 91 75 44 39
80 79 83 87 83 85 91 93 93 93 85 88 84 63 66 66 80 86 85 86 86 87 87 88 89 86 88 90 86 45 48 40
83 85 85 88 81 84 80 72 66 67 64 71 65 74 71 73 80 90 89 89 89 90 90 90 81 57 54 65 46 53 48 48
81 83 85 85 80 79 72 69 70 69 74 72 73 73 74 69 67 64 68 76 55 55 55 54 65 60 53 53 48 45 42 40
82 80 81 84 72 72 70 66 69 68 68 74 76 70 70 65 54 56 60 55 56 54 51 61 58 53 51 51 45 35 28 29
76 76 77 74 74 70 70 78 84 84 82 78 77 67 64 57 58 50 50 47 48 49 49 46 45 42 42 40 36 37 36 29
76 69 66 64 69 75 82 82 78 84 91 92 89 88 68 50 47 46 45 46 46 45 44 39 37 35 36 40 37 36 36 45
72 74 71 75 74 75 78 83 83 88 89 86 84 72 57 52 45 47 48 45 45 42 39 40 35 31 33 32 32 37 36 52
67 70 73 81 84 90 82 82 87 82 85 78 56 45 49 53 48 50 42 40 38 39 37 34 36 36 34 32 33 34 53 54
72 74 75 84 93 80 66 69 59 66 69 58 56 54 53 53 48 47 46 42 45 39 40 40 38 36 28 30 30 32 49 43
74 74 86 87 69 59 60 57 56 53 43 41 44 42 50 49 48 53 45 43 44 41 44 41 46 49 30 32 34 38 50 47
73 68 64 60 54 58 58 59 54 42 38 45 46 45 45 50 44 45 46 44 50 48 40 42 38 51 40 32 30 47 52 45
66 58 49 44 49 53 58 58 48 40 41 46 45 48 43 42 48 45 49 45 55 54 48 40 45 58 45 38 33 29 35 45
58 50 47 47 53 48 46 47 48 41 40 38 41 43 38 41 49 49 53 52 52 57 54 51 46 52 61 44 42 41 50 36
43 44 42 44 48 46 52 43 42 50 43 41 40 48 47 42 47 54 57 56 60 58 51 53 51 47 42 44 50 52 44 43
49 48 46 47 49 49 44 48 48 45 45 52 53 52 52 50 52 58 61 57 61 59 56 49 41 39 39 40 44 39 41 43
53 46 45 46 46 49 52 50 47 46 50 51 50 50 48 53 53 60 62 61 58 54 54 49 42 40 36 37 35 37 36 46
47 42 45 46 48 47 49 49 51 49 48 47 51 46 44 51 61 64 60 58 58 53 51 50 43 36 38 34 39 40 43 43
46 43 41 41 42 39 36 33 29 28 36 38 40 44 48 60 63 62 58 56 55 59 50 46 50 47 50 56 48 48 58 59

GFSFLT2_sfc_rhum_006.txt.gz
RH
65 61 72 95 94 94 92 91 91 89 86 83 80 78 75 73 74 74 74 72 73 74 74 77 78 82 84 87 89 80 32 25
67 64 60 62 62 95 94 92 91 90 85 83 83 80 75 77 72 76 77 78 78 78 81 84 84 87 86 86 86 82 28 25
57 56 57 61 56 73 87 90 88 87 78 82 76 40 43 44 76 80 82 86 86 86 86 87 87 85 78 77 79 25 28 24
68 68 70 65 52 55 53 47 40 42 44 51 39 53 53 56 68 85 84 84 84 77 74 78 71 31 29 50 26 32 26 27
72 80 74 58 52 44 37 36 42 46 56 55 52 55 54 46 41 38 42 58 35 37 35 31 41 38 32 35 31 27 23 22
65 52 57 59 40 38 43 41 46 47 52 57 62 60 72 52 38 39 44 36 38 34 31 40 38 35 37 35 33 28 23 22
53 53 55 53 50 48 48 48 48 53 51 60 60 68 78 56 46 37 36 32 32 33 30 29 29 28 31 32 30 31 30 25
53 48 50 50 53 57 52 52 58 71 66 74 74 81 93 73 41 33 32 31 29 27 28 26 25 27 26 30 30 28 27 32
50 55 55 56 53 51 58 54 61 53 56 72 77 76 78 59 42 37 32 32 32 31 29 28 26 24 27 26 27 28 27 35
48 50 54 59 70 79 83 65 59 49 52 56 52 52 59 50 38 42 40 35 32 32 31 28 28 29 29 25 26 24 27 36
51 54 62 78 79 70 52 57 47 43 40 38 49 46 46 45 41 40 38 33 36 33 31 34 30 30 26 24 25 26 27 23
54 48 53 56 46 48 37 34 34 32 31 31 35 33 38 36 37 41 34 30 30 32 38 33 35 36 29 26 29 26 26 29
51 54 53 45 41 40 36 36 36 33 30 37 37 35 34 37 31 34 36 35 42 42 37 37 34 37 35 26 23 23 29 30
49 48 46 39 35 35 37 37 34 31 33 37 34 35 31 31 39 36 38 36 41 46 45 38 30 36 45 36 29 22 19 27
48 42 36 37 39 34 34 36 34 31 30 28 34 37 33 33 38 39 42 39 38 44 44 45 40 35 39 41 39 33 31 25
39 35 36 36 33 36 41 33 32 35 33 32 34 39 40 35 36 41 44 40 42 43 38 44 41 35 32 26 35 37 39 37
39 35 34 35 36 37 34 37 34 33 34 38 36 35 36 34 35 40 43 38 43 49 48 42 37 39 36 35 36 31 31 32
40 36 35 36 37 40 44 43 35 29 26 24 20 20 20 24 24 40 46 46 51 47 45 45 43 39 34 33 32 34 32 32
38 35 36 37 38 35 31 27 25 23 23 21 25 22 23 27 33 38 42 49 47 46 49 51 43 38 37 33 31 31 30 32
37 35 35 31 27 23 23 23 22 21 27 28 27 28 31 39 46 47 50 48 48 57 51 44 42 38 39 38 34 32 30 32

GFSFLT2_sfc_rhum_009.txt.gz
RH
78 66 69 94 94 93 93 92 90 87 83 79 74 74 73 71 72 73 73 72 73 74 76 78 79 80 81 82 81 82 46 24
64 62 65 70 76 94 93 92 90 87 82 78 78 77 72 71 69 75 76 78 80 81 83 83 82 81 80 76 76 76 25 22
61 59 60 65 72 75 86 88 87 84 76 77 73 44 41 45 73 77 79 83 82 81 75 75 78 81 77 69 73 24 24 21
59 60 62 58 43 51 45 40 36 39 42 44 36 46 43 38 58 76 77 78 75 74 69 74 74 28 28 54 24 27 21 21
55 59 54 45 42 34 31 34 40 44 50 42 51 44 49 41 41 38 41 59 34 39 36 30 37 34 31 32 30 28 21 20
47 42 47 47 34 30 32 36 39 40 44 48 51 46 53 50 44 46 41 35 38 34 32 36 33 30 30 32 30 27 24 24
41 43 47 45 41 42 44 55 54 52 52 59 52 49 59 54 69 66 53 35 34 34 32 28 27 26 27 27 29 30 29 24
43 41 44 43 49 52 46 47 46 46 51 57 58 49 56 51 49 45 37 35 33 31 30 29 29 31 32 32 29 28 28 30
44 51 48 50 48 44 46 46 53 44 48 60 64 54 59 72 54 51 47 39 35 32 32 30 29 28 31 27 26 26 25 27
43 45 47 47 60 73 76 54 52 49 52 54 55 49 57 56 47 43 40 46 41 43 42 36 35 30 30 28 26 25 27 30
43 49 50 59 68 47 46 53 42 39 40 36 39 36 36 38 35 38 40 32 33 33 33 36 35 33 30 29 31 27 28 21
45 46 49 58 40 42 37 34 32 30 29 30 33 31 36 37 32 40 38 32 33 37 45 39 38 34 26 31 34 24 24 25
46 46 47 41 36 35 35 36 34 32 31 35 35 35 32 37 34 35 36 36 40 42 41 44 38 33 30 33 30 31 30 22
44 44 43 34 32 30 33 34 31 30 33 36 33 36 32 33 39 38 38 38 42 43 44 43 35 31 33 35 36 28 22 27
42 39 35 32 34 32 32 32 33 30 29 28 32 37 35 35 37 38 41 39 35 42 40 45 40 34 34 33 38 36 33 27
36 35 34 34 28 32 37 31 31 35 33 32 31 32 31 27 27 32 37 37 40 38 32 43 44 39 34 29 36 36 38 39
37 34 30 31 33 35 33 35 32 30 28 27 24 23 21 18 21 28 35 36 41 44 46 46 41 42 41 40 38 33 31 32
38 32 31 34 37 40 42 37 28 25 25 22 20 20 20 24 24 32 34 35 42 42 46 48 54 50 38 36 36 34 31 34
35 32 34 36 37 32 29 28 27 24 25 24 27 24 24 28 35 39 36 38 42 47 59 62 60 52 42 36 33 34 33 33
33 32 34 33 28 26 26 23 23 23 27 27 25 26 27 32 36 41 40 42 50 49 57 62 59 48 43 42 37 36 33 33

GFSFLT2_sfc_rhum_015.txt.gz
RH
98 97 90 94 92 91 90 88 85 81 81 81 80 81 82 81 81 82 80 80 79 78 75 75 76 76 76 82 82 78 56 62
98 97 96 95 88 90 88 85 82 80 80 80 80 80 80 80 80 80 77 75 74 76 71 70 73 75 77 83 82 64 50 61
96 93 93 93 92 84 84 83 80 80 78 79 82 78 76 76 79 78 74 75 73 74 69 74 75 70 74 76 74 47 48 63
91 90 95 90 68 85 86 75 78 75 73 76 73 77 78 66 76 82 78 77 73 71 70 77 68 51 54 60 53 45 49 64
86 90 82 80 71 82 78 76 78 79 72 74 75 74 78 80 81 89 85 74 67 66 56 52 48 52 52 55 50 45 55 55
80 82 83 70 73 72 67 67 75 77 75 72 81 88 83 83 85 82 76 75 63 59 56 49 47 47 44 49 47 46 53 52
73 63 64 62 68 76 78 76 80 82 83 81 85 88 80 79 79 74 65 59 60 59 54 50 53 49 49 51 48 46 48 53
66 64 70 69 66 72 75 77 72 84 90 91 87 91 93 84 75 71 64 62 61 60 55 54 54 53 51 52 48 50 45 47
65 71 73 70 75 73 71 73 80 83 75 85 87 84 80 68 75 70 66 63 58 59 61 64 63 56 55 54 54 49 46 44
62 64 78 79 77 79 81 78 78 77 75 72 64 62 68 72 70 72 66 66 66 68 69 66 68 66 66 62 57 49 45 40
73 77 75 76 82 87 79 67 67 69 72 67 58 60 61 71 72 66 59 66 72 67 70 72 71 72 50 47 58 57 48 43
73 73 75 79 82 75 74 69 71 68 63 62 55 56 53 65 69 69 67 68 70 69 69 71 76 68 42 46 58 55 54 55
73 77 76 83 71 74 74 72 65 62 59 55 59 60 59 60 64 60 67 66 70 69 73 66 66 71 60 59 55 55 48 52
70 71 75 74 54 66 65 57 62 59 63 62 56 55 53 53 63 66 65 66 67 69 67 68 74 69 65 71 67 61 57 52
66 67 64 65 55 56 58 61 67 68 67 66 61 46 35 38 52 56 58 64 72 73 71 70 71 70 68 69 75 79 70 56
62 56 52 57 54 52 50 62 60 68 61 49 42 40 39 39 52 57 60 66 61 72 65 80 76 78 75 58 66 68 69 70
64 48 46 56 57 58 58 62 55 52 48 46 39 45 44 46 53 56 64 70 72 82 83 84 82 81 78 74 66 64 58 64
46 43 55 62 64 61 54 47 47 45 46 50 45 49 53 54 45 62 64 71 81 84 83 84 85 81 75 77 69 64 65 67
46 51 61 56 52 49 47 45 44 42 46 50 47 48 51 51 54 61 67 76 72 78 83 86 86 89 85 76 71 69 63 62
52 55 60 52 50 47 44 43 52 48 49 49 52 52 54 51 57 57 62 65 74 80 83 85 86 87 86 73 74 62 67 63

GFSFLT2_sfc_rhum_021.txt.gz
RH
97 98 92 88 90 90 87 84 82 84 84 82 83 84 83 81 80 80 78 76 73 72 73 74 78 75 72 78 75 73 71 77
96 96 97 97 92 86 83 82 85 86 86 85 85 84 83 81 80 77 73 72 73 73 78 76 82 74 72 75 75 65 66 74
96 94 91 94 95 86 84 81 83 84 83 83 87 87 82 76 78 74 72 75 74 76 76 72 70 74 72 68 59 63 66 74
89 85 90 96 80 89 87 76 82 82 81 79 79 84 87 79 82 78 76 76 76 72 68 65 56 56 57 55 53 56 62 74
92 90 92 97 83 94 90 87 83 81 79 78 81 84 87 86 84 85 77 65 55 55 54 55 52 57 58 56 55 57 65 67
92 95 97 93 89 89 85 80 82 82 79 83 89 90 84 85 85 80 69 68 62 61 64 58 57 56 55 56 54 54 55 59
85 90 97 94 89 86 82 82 87 87 88 89 91 91 84 73 70 69 68 65 64 62 60 60 60 58 60 54 51 51 50 57
87 92 96 87 85 81 84 91 95 95 94 92 84 84 84 78 71 68 67 68 68 68 68 68 67 63 61 55 55 51 48 49
94 94 90 86 85 86 94 96 95 95 95 92 89 86 85 74 74 76 76 72 71 71 71 72 72 65 59 57 58 50 49 46
83 75 85 87 83 92 97 94 92 94 93 88 79 75 75 75 73 76 78 76 74 75 75 74 78 68 61 65 60 56 48 48
82 85 88 84 90 92 91 93 83 80 80 76 74 74 73 74 74 78 74 73 75 68 79 78 79 70 55 66 65 61 56 42
88 85 84 86 88 83 88 79 80 76 75 71 68 76 72 76 75 75 72 72 74 74 65 72 79 76 46 55 66 63 59 59
85 83 86 86 77 80 79 80 77 76 71 66 71 71 67 70 76 73 72 72 78 72 74 69 78 77 66 66 69 64 60 58
84 77 88 84 68 71 72 75 75 74 74 72 69 68 67 68 64 60 62 63 65 73 76 77 87 81 74 75 74 68 64 57
80 76 83 79 73 72 75 74 76 75 77 76 57 54 49 54 58 62 65 65 67 72 81 75 81 78 75 73 79 81 77 66
75 72 79 78 73 66 60 70 66 76 79 56 48 54 58 56 61 68 73 77 77 86 82 88 81 82 78 64 70 70 73 73
80 74 79 79 70 64 76 88 86 75 57 51 54 62 61 58 66 70 79 83 81 77 78 80 79 79 81 82 78 76 71 72
90 87 80 84 74 65 70 84 79 57 53 58 63 68 64 65 64 74 82 81 77 78 84 83 86 85 87 84 76 72 70 74
90 85 84 81 77 71 68 71 73 56 50 62 64 63 60 63 63 65 72 75 77 81 86 87 90 90 87 86 83 77 75 74
83 76 81 72 75 71 64 57 49 42 47 52 62 61 61 61 62 60 73 71 82 87 84 88 89 93 90 92 85 83 77 75

GFSFLT2_sfc_rhum_024.txt.gz
RH
98 98 95 89 91 90 88 87 88 87 86 84 85 85 83 81 80 79 77 76 76 78 82 76 73 78 80 79 78 71 76 78
96 96 97 96 94 86 86 87 89 88 87 86 85 84 83 81 80 78 76 76 77 76 81 75 74 77 79 76 72 65 70 76
94 96 98 94 97 84 83 84 86 86 84 85 88 89 85 77 78 75 76 77 78 76 75 77 75 73 69 64 61 68 69 74
92 95 92 88 91 90 83 80 84 84 84 82 83 86 84 82 83 80 81 80 74 72 69 65 58 59 59 58 59 61 63 74
93 94 92 87 94 91 89 85 86 84 81 80 84 87 88 82 81 78 74 62 56 56 58 59 60 61 60 59 56 58 63 65
85 87 94 98 94 90 88 82 83 84 80 82 91 91 85 82 80 77 69 67 64 65 67 64 63 61 60 57 55 56 57 60
87 96 98 97 94 91 90 83 85 84 86 91 91 91 84 73 71 72 69 66 65 66 66 65 66 62 59 56 53 53 54 57
93 95 97 96 95 90 88 87 93 96 96 94 87 81 81 74 70 70 70 71 72 71 70 70 70 64 61 57 52 52 50 53
92 94 96 95 92 86 90 97 96 97 95 90 87 85 82 74 76 76 74 74 73 74 75 74 72 59 62 59 54 53 51 52
94 82 95 94 93 92 96 98 98 97 97 94 82 78 74 76 76 80 80 77 76 76 76 78 73 66 67 65 60 54 52 53
93 93 94 93 92 97 97 96 97 96 92 88 80 74 71 74 78 81 77 75 76 72 80 78 73 71 64 66 64 60 56 43
90 92 92 90 96 94 96 88 85 84 81 79 78 77 72 78 80 79 76 74 76 71 69 80 80 74 48 59 66 64 61 58
92 93 91 88 90 91 93 86 88 80 75 72 79 76 73 76 78 75 74 74 79 74 74 72 80 79 70 71 69 67 61 61
93 88 88 83 76 79 76 79 79 77 76 76 76 73 72 73 71 72 73 71 71 78 75 84 82 80 74 75 77 70 65 57
86 85 84 81 76 75 78 80 76 76 80 78 70 65 58 57 62 67 66 68 69 78 81 77 80 73 76 74 78 78 76 68
84 82 83 83 74 70 63 71 71 77 81 64 55 59 60 59 65 71 74 79 83 81 80 84 80 77 77 67 73 72 73 73
90 85 85 82 72 67 74 85 86 84 68 56 62 66 64 66 69 74 82 86 80 76 74 78 78 82 80 79 77 75 69 70
95 89 85 88 79 79 77 84 85 76 70 67 69 70 72 70 71 81 83 81 78 76 76 78 80 81 82 77 76 73 70 73
93 91 88 93 89 86 82 80 75 72 66 72 71 72 73 69 71 77 82 79 81 78 81 85 86 85 83 81 82 78 74 73
88 91 90 93 91 89 85 79 73 66 58 59 62 55 67 69 62 65 76 76 78 81 85 86 89 91 89 90 87 85 80 76

GFSFLT2_sfc_rhum_027.txt.gz
RH
96 95 90 85 90 90 90 88 87 85 85 85 85 85 83 81 80 77 76 80 82 76 74 81 79 75 74 78 78 73 43 43
96 93 92 95 92 87 90 90 90 89 88 88 85 83 82 82 79 77 78 78 82 76 75 78 74 73 71 70 72 66 41 38
96 91 91 93 88 78 84 88 89 88 83 86 82 57 56 54 73 77 80 80 81 80 76 73 72 69 65 62 58 37 39 37
84 91 93 87 87 80 79 76 76 70 64 65 60 65 62 57 70 85 81 78 74 73 66 62 50 34 32 44 34 40 40 42
83 89 90 88 91 89 86 71 75 76 78 68 65 66 65 64 60 58 56 56 39 44 41 38 44 37 37 38 36 34 31 32
86 86 90 89 90 86 74 69 65 64 63 69 74 67 69 61 48 49 53 45 50 48 46 52 48 44 42 42 41 33 30 33
77 74 74 81 80 71 67 63 57 59 61 69 69 64 63 52 54 49 47 46 45 46 45 43 45 42 40 38 37 38 40 36
73 76 77 79 76 73 64 63 65 67 69 79 71 62 62 54 53 48 48 44 46 44 44 43 41 40 40 38 36 34 38 47
73 78 78 84 78 69 68 65 65 69 74 77 71 64 63 58 50 51 51 51 53 52 50 47 40 39 40 37 34 37 35 43
71 68 77 84 79 70 69 67 73 72 72 68 63 55 58 58 52 54 52 52 49 48 48 46 46 42 42 35 34 33 39 39
72 73 75 83 79 69 72 82 75 74 75 64 63 55 55 54 52 58 56 50 52 48 52 49 47 44 39 38 37 33 35 28
69 72 77 81 72 74 81 76 73 82 78 61 60 52 55 57 57 60 52 49 50 46 51 52 48 43 32 38 39 36 34 35
70 74 78 76 73 74 79 77 78 77 68 65 64 55 55 58 54 56 52 49 50 53 50 53 49 50 44 42 41 42 40 34
71 71 74 73 65 68 70 70 70 75 62 63 59 60 55 57 57 52 52 50 57 57 56 53 49 52 45 46 46 44 40 37
72 68 70 71 69 66 67 76 64 58 56 58 57 58 53 52 56 52 51 45 45 54 56 56 50 52 54 42 46 41 46 43
71 71 71 71 70 65 66 69 65 55 55 54 52 55 51 41 44 49 51 49 53 55 54 56 54 51 51 44 51 48 42 41
74 71 70 68 66 64 64 70 71 63 62 61 55 52 48 43 49 54 55 53 60 64 68 61 57 65 49 52 53 48 50 44
79 73 69 69 69 69 69 74 70 62 56 53 51 48 49 52 49 55 58 58 68 81 74 67 60 51 47 49 43 41 40 43
76 73 70 74 76 72 74 74 74 65 63 67 67 62 60 60 59 60 56 63 66 63 66 62 58 53 55 49 48 46 45 46
71 73 71 74 76 73 73 74 81 75 70 66 65 63 62 59 58 55 63 73 64 62 62 58 63 61 62 59 52 52 53 50

GFSFLT2_sfc_rhum_030.txt.gz
RH
95 92 83 84 91 92 91 88 86 85 85 84 84 84 81 79 78 79 79 76 77 81 82 78 72 71 72 76 74 66 28 28
96 92 87 86 84 92 92 92 90 90 88 85 85 81 81 79 78 79 82 78 77 80 80 75 71 70 70 70 66 60 25 23
94 94 90 86 80 76 87 90 91 89 82 83 74 40 38 45 74 81 84 83 80 76 73 74 73 66 62 59 52 25 25 24
93 93 90 89 85 76 71 71 56 62 60 54 45 53 40 40 66 84 82 80 76 72 66 60 48 25 26 43 25 27 25 24
91 93 91 85 87 89 64 56 64 61 60 50 52 56 49 45 50 44 44 53 31 35 34 28 34 29 29 30 28 25 21 21
83 77 82 76 75 85 59 52 51 58 55 55 54 46 50 48 42 40 42 36 42 40 36 42 38 36 35 36 34 25 22 23
75 68 67 73 58 42 44 52 48 43 44 44 40 42 52 44 44 37 36 36 36 37 37 34 37 35 33 32 31 32 30 24
72 60 55 47 46 51 44 43 40 42 46 51 52 45 51 45 43 38 37 34 34 33 33 32 31 32 35 33 31 28 30 31
61 61 56 52 54 57 45 44 42 45 50 62 57 51 53 48 38 40 38 38 40 39 37 36 32 29 33 30 28 30 27 32
58 54 60 62 63 52 42 43 46 45 52 58 57 47 48 48 42 42 39 39 36 36 35 34 32 28 30 26 27 27 31 31
53 57 59 67 68 57 48 50 48 51 55 54 57 47 45 45 40 44 45 38 40 37 37 34 32 28 27 27 29 26 30 21
51 55 60 64 56 50 39 47 53 59 56 50 52 43 46 46 44 50 41 37 39 37 38 32 31 29 19 26 31 29 28 29
50 53 56 56 53 48 46 53 55 58 55 55 54 46 46 49 44 47 40 38 39 42 36 39 33 34 33 34 34 37 36 29
51 50 52 53 46 42 43 48 50 57 60 58 54 51 45 47 47 43 41 40 45 42 39 33 31 36 38 36 40 36 34 34
46 47 48 52 48 41 49 53 57 62 64 66 56 53 45 44 48 43 46 40 38 42 40 38 36 39 44 46 40 34 33 32
46 45 45 49 51 46 55 50 54 61 71 60 49 54 49 41 44 46 46 34 35 36 34 43 43 49 43 36 40 34 28 29
50 48 47 48 53 54 52 55 49 50 58 53 54 55 55 42 42 44 42 35 38 38 50 52 48 41 41 40 39 34 36 35
50 52 48 49 53 58 57 56 56 60 55 55 55 58 60 48 40 44 41 37 46 53 69 65 48 45 37 34 31 34 34 35
50 51 49 51 54 58 61 61 65 67 64 66 65 54 60 54 48 52 57 58 58 59 73 71 51 45 41 34 36 35 31 30
50 50 51 49 56 59 60 63 68 67 68 74 73 69 69 55 69 62 50 63 62 80 77 57 51 45 47 46 36 36 35 35

GFSFLT2_sfc_rhum_033.txt.gz
RH
93 89 88 92 92 90 89 86 86 86 86 86 84 83 82 80 78 78 80 81 81 80 78 77 70 70 73 69 65 61 26 26
94 93 94 90 87 92 91 91 91 91 87 85 84 81 81 81 80 78 79 82 82 77 76 73 69 70 68 68 61 59 23 24
94 93 93 90 86 88 89 91 88 86 80 79 70 51 47 56 79 83 82 85 82 78 76 75 73 67 60 54 58 24 22 23
94 94 90 85 76 76 75 59 62 53 48 51 40 58 55 49 77 84 83 81 78 75 73 72 62 26 27 45 25 24 21 26
94 88 90 88 87 91 91 91 79 60 62 52 55 60 63 59 57 56 50 54 32 37 38 30 35 29 31 33 26 23 20 27
92 84 85 83 86 93 91 83 68 50 50 52 68 58 64 59 47 44 47 36 38 37 37 42 38 36 36 34 31 24 21 28
80 85 86 81 78 67 62 45 41 44 54 52 50 49 52 42 42 40 38 39 39 39 40 34 35 34 31 29 27 29 27 22
86 76 68 65 56 60 61 50 44 43 47 45 42 44 53 44 48 40 38 36 36 35 33 32 29 30 33 28 27 24 27 29
65 66 59 57 49 52 49 45 40 41 38 52 48 41 52 49 41 41 38 37 38 36 35 32 30 26 28 27 26 27 27 29
46 36 46 53 52 50 44 42 38 34 40 55 53 47 51 50 41 42 39 40 37 34 34 32 31 27 28 25 26 26 30 30
57 61 52 52 53 49 42 46 46 40 54 66 58 48 46 48 42 43 44 39 38 36 35 34 32 28 26 28 30 28 30 21
52 56 58 57 58 54 40 36 40 40 53 51 51 44 47 50 42 47 46 40 39 37 39 31 30 29 19 24 33 31 30 30
46 48 50 50 57 47 38 39 41 48 58 54 51 46 47 51 43 49 48 41 40 43 38 39 32 32 34 35 35 38 40 32
44 44 45 45 41 38 35 36 36 42 63 53 49 51 46 49 49 49 48 39 44 46 40 35 31 36 39 40 46 41 37 37
40 41 42 44 41 36 32 34 39 40 50 56 55 54 48 46 50 48 48 42 46 48 44 40 35 39 43 46 46 42 35 35
41 39 38 39 41 37 39 38 40 43 49 50 55 59 55 45 46 50 49 44 46 45 37 38 41 41 43 39 45 44 38 34
43 39 37 38 42 44 40 45 43 41 47 58 63 55 56 49 47 53 52 47 45 47 41 44 52 61 60 62 45 39 40 40
42 40 36 37 41 47 51 50 49 42 52 56 56 58 56 56 48 57 59 60 47 43 48 61 70 60 70 56 40 36 36 38
40 39 38 39 43 46 52 51 51 52 56 59 55 58 68 71 70 71 72 67 81 82 77 81 80 74 60 46 33 38 36 32
40 39 41 39 47 47 49 60 59 60 67 65 71 73 84 91 85 70 66 75 73 76 87 88 85 76 62 44 42 42 35 34

GFSFLT2_sfc_rhum_036.txt.gz
RH
95 92 88 90 90 90 89 87 88 89 89 87 86 84 82 84 84 82 83 82 81 80 79 77 73 68 65 65 69 69 46 46
97 94 91 91 88 91 91 90 91 88 87 87 86 83 82 82 82 82 83 82 80 78 77 75 70 66 61 56 60 66 40 48
96 97 90 89 87 84 84 89 87 85 81 80 70 63 63 64 82 86 86 84 81 79 77 74 69 61 60 63 58 40 40 54
96 96 94 90 84 83 86 74 67 64 65 67 62 72 70 72 82 86 86 84 80 76 74 73 64 46 51 60 41 40 42 54
92 92 90 89 89 90 93 91 86 73 72 66 73 70 74 80 79 75 79 71 53 60 67 59 56 54 55 53 46 38 45 50
92 89 90 89 83 82 81 88 93 83 68 72 78 77 76 74 72 71 66 61 56 59 67 58 52 49 48 47 44 45 50 56
90 86 90 89 87 87 83 95 92 69 68 69 70 72 79 74 70 63 62 63 63 65 60 54 52 48 46 41 41 40 39 56
91 93 91 90 94 88 92 90 87 69 69 70 68 71 72 69 69 65 64 60 61 61 59 53 54 50 45 39 40 41 38 53
91 94 92 91 88 85 88 76 44 53 64 66 65 60 69 70 66 69 66 62 59 60 51 53 50 41 45 42 42 37 41 39
75 72 81 80 67 57 68 56 58 58 62 72 66 60 68 73 70 68 63 64 61 60 59 56 53 51 50 47 43 41 39 39
65 70 65 62 54 51 59 63 68 62 61 72 72 65 64 72 65 67 65 64 67 59 61 58 55 50 46 48 47 48 46 33
49 52 56 60 56 47 55 55 63 64 67 69 72 66 67 72 68 70 65 67 66 62 61 52 57 54 28 38 54 53 51 51
56 61 61 58 63 64 64 57 55 56 78 67 75 68 66 72 71 73 70 69 66 67 62 56 55 52 56 56 59 58 56 54
63 64 62 57 60 63 59 53 51 53 73 72 82 80 62 69 74 70 72 70 69 70 64 66 62 61 66 68 74 69 63 58
56 58 62 63 61 57 52 52 52 49 69 74 72 68 63 64 72 73 76 74 75 75 69 65 64 66 62 70 75 74 65 65
50 48 49 51 53 49 52 46 46 51 65 67 66 72 71 67 67 72 74 70 72 75 66 65 64 70 73 59 62 62 66 64
52 48 47 48 52 55 54 52 50 50 64 68 73 78 76 79 71 74 72 71 67 65 62 61 64 76 78 84 80 80 68 65
54 50 46 46 51 54 62 66 59 60 66 70 75 76 77 79 71 76 79 85 91 91 88 70 78 81 85 86 87 81 62 69
52 51 49 48 52 56 58 63 62 64 66 74 76 80 80 85 78 81 85 91 92 93 86 86 89 89 92 95 92 62 55 56
48 46 48 45 50 54 59 58 63 72 74 85 85 85 83 84 84 86 90 89 84 82 87 93 93 96 97 92 80 64 58 56

GFSFLT2_sfc_rhum_042.txt.gz
RH
96 92 85 96 86 90 90 90 90 90 88 88 89 85 85 83 83 82 79 77 73 70 68 67 67 69 76 76 76 73 71 69
97 98 95 91 90 92 93 92 92 91 92 92 89 88 87 86 83 80 79 76 73 69 66 69 69 71 75 77 77 74 76 78
95 97 96 96 90 92 90 89 88 89 90 90 89 88 84 82 82 81 79 77 73 70 70 69 66 71 73 74 73 80 83 84
95 95 99 95 92 92 89 81 76 76 76 80 81 87 83 81 81 80 77 78 75 71 69 66 61 56 60 68 75 81 85 89
94 94 94 93 95 94 92 79 84 75 70 73 76 84 86 92 85 87 84 78 71 65 58 59 54 54 53 62 66 70 82 85
93 92 92 90 86 87 87 74 86 83 88 80 78 82 87 88 79 82 75 71 63 62 65 60 54 48 48 57 63 72 81 85
96 90 92 90 84 92 92 90 91 86 77 73 74 74 82 82 79 73 69 66 61 71 65 58 54 49 47 50 61 65 71 80
92 90 89 92 89 86 91 90 85 86 88 76 76 77 81 78 83 72 70 69 62 70 62 60 53 46 45 47 55 67 70 81
91 91 88 86 84 81 90 88 74 70 74 82 83 82 86 87 92 82 73 70 71 68 66 65 59 48 45 45 50 65 70 77
90 84 87 79 79 68 75 84 73 63 64 80 77 78 83 88 86 84 79 77 74 72 68 65 63 54 51 54 50 51 63 74
92 88 85 76 77 74 78 76 63 58 59 72 78 75 78 82 78 83 79 78 73 67 68 65 62 60 53 57 57 54 52 60
78 76 77 76 78 80 80 75 63 57 68 78 77 80 78 85 81 82 79 75 74 70 67 72 65 62 41 49 60 61 60 64
80 81 82 79 73 78 78 78 77 76 75 76 86 80 84 87 86 87 79 67 68 70 72 64 68 67 61 64 65 69 66 65
81 80 80 74 72 71 72 69 76 76 72 81 87 89 87 87 88 86 76 76 78 77 70 70 64 69 63 78 74 76 74 68
81 78 75 70 66 63 70 75 82 77 72 74 80 89 87 86 89 85 78 75 79 80 72 64 67 75 72 71 87 85 77 76
72 74 70 67 63 59 59 60 64 62 66 66 85 89 86 84 88 85 81 81 86 86 74 70 66 68 71 65 72 72 71 73
61 65 60 59 61 58 58 59 59 76 75 71 79 90 83 80 87 91 86 87 92 91 83 77 85 88 87 84 82 84 74 80
57 55 54 62 58 61 63 69 72 77 75 72 72 80 90 91 89 92 91 92 94 92 90 86 91 88 88 86 87 89 92 90
60 59 61 63 66 63 63 69 79 72 68 75 80 93 97 95 92 95 95 92 93 93 89 90 93 90 91 88 92 93 93 85
63 63 65 63 66 64 63 68 70 74 68 75 86 85 87 94 95 93 93 92 92 91 89 91 91 94 91 92 96 95 92 82

GFSFLT2_sfc_rhum_045.txt.gz
RH
89 87 90 90 87 89 85 88 85 86 84 84 84 83 81 80 77 74 70 70 68 68 70 77 78 78 78 80 79 75 81 76
98 97 96 93 96 91 87 88 89 89 88 89 88 85 83 80 76 73 71 70 71 70 74 78 79 79 79 80 80 77 84 83
98 98 97 93 89 88 82 91 94 94 91 91 90 87 86 84 78 75 74 73 71 70 71 80 80 79 79 80 76 84 84 87
93 96 99 92 88 91 80 85 81 88 86 91 93 91 86 76 75 76 78 74 72 73 70 69 66 76 76 77 86 88 89 89
94 91 96 96 96 96 97 98 97 90 86 84 86 89 90 86 92 90 85 70 66 59 64 54 54 67 75 82 84 87 92 92
95 93 93 92 94 94 94 95 93 88 84 81 88 91 97 94 83 82 76 74 65 67 70 61 54 62 67 73 76 81 89 89
93 91 94 93 88 93 94 87 87 88 81 80 82 86 88 90 85 78 71 68 67 73 66 59 54 55 60 62 68 73 75 80
95 91 86 92 95 90 92 93 82 82 94 83 81 79 82 79 85 72 72 63 74 71 66 63 56 51 56 61 63 65 69 74
95 96 95 97 94 90 93 86 75 77 82 86 79 77 83 85 87 77 70 68 73 72 70 66 57 48 51 59 66 67 72 77
90 87 91 90 89 82 82 83 76 74 78 82 79 73 78 85 84 77 76 77 77 75 73 72 65 55 54 56 67 72 71 79
92 91 94 94 83 82 83 77 67 65 75 83 84 80 79 85 88 85 82 81 82 74 75 71 69 62 55 61 61 68 72 70
89 86 86 86 79 84 87 87 68 64 66 78 81 83 85 91 88 89 84 82 80 78 72 74 69 65 45 54 65 65 63 81
84 86 89 87 81 76 80 81 71 68 71 68 80 82 86 91 90 90 87 80 74 72 74 71 72 68 62 65 66 69 68 68
79 77 80 75 70 66 68 77 74 70 70 79 83 85 85 90 89 92 88 81 80 78 72 72 70 71 65 74 68 70 77 66
84 76 77 73 70 81 73 72 76 78 79 85 83 89 90 90 91 92 90 85 82 81 78 68 69 74 73 65 88 76 73 68
84 80 77 73 79 78 78 69 66 64 71 76 79 88 92 92 92 91 90 88 88 81 77 74 72 71 71 71 70 73 72 68
86 82 80 75 73 73 74 75 72 70 82 83 84 89 91 93 93 94 93 91 90 92 93 90 88 90 86 88 82 81 74 78
83 82 79 74 73 72 70 73 71 70 74 78 78 87 94 94 92 94 94 94 93 92 92 92 86 92 91 85 87 86 91 86
76 75 76 71 72 70 68 64 70 65 70 77 85 88 94 93 94 95 95 94 96 96 95 93 90 88 86 81 87 86 87 85
69 67 69 67 67 66 66 66 64 65 68 78 88 85 85 91 94 92 91 97 98 98 97 96 94 93 93 89 89 92 90 86

GFSFLT2_sfc_rhum_048.txt.gz
RH
95 90 86 87 84 83 83 79 84 85 83 81 80 80 79 78 74 73 78 83 82 81 80 79 79 79 80 80 81 76 80 75
97 95 94 93 89 79 80 75 73 87 86 87 87 83 78 72 71 71 72 75 78 80 80 79 79 80 80 81 81 78 82 80
96 96 93 94 87 86 82 75 80 87 89 91 89 92 84 79 71 73 72 74 78 80 81 81 80 80 81 82 77 83 84 83
99 98 98 93 90 83 81 83 82 86 89 91 95 91 85 73 73 71 72 76 79 83 84 82 82 82 80 78 83 86 86 86
97 98 96 97 97 92 94 91 82 88 95 88 94 89 90 95 88 81 77 70 64 67 69 72 82 80 82 86 86 87 90 87
95 92 94 94 98 97 94 96 91 92 95 86 87 92 90 88 84 82 76 71 69 64 65 70 75 77 80 84 86 89 90 89
95 91 88 87 91 96 97 97 95 97 91 82 89 84 81 81 83 77 72 69 68 66 61 62 72 73 76 79 82 85 85 86
97 93 91 91 91 89 92 91 94 97 95 90 82 82 81 79 84 72 69 67 72 63 57 60 66 66 70 71 73 75 77 82
96 95 91 91 90 90 92 89 88 91 92 86 82 80 80 84 85 73 68 74 70 68 66 62 62 57 64 66 66 68 71 74
94 94 98 97 95 95 91 87 79 80 89 83 76 77 80 82 76 73 74 77 75 70 69 64 62 60 61 68 72 72 72 79
97 95 94 98 95 94 84 82 79 82 88 84 81 77 78 76 74 78 76 77 81 71 76 68 64 60 57 64 71 77 73 71
94 91 94 95 94 91 90 87 69 74 79 83 79 78 81 84 83 84 82 82 85 78 76 75 69 64 46 57 69 68 70 80
90 94 94 94 96 93 87 89 77 69 73 78 86 81 87 91 91 93 91 87 86 83 78 74 75 71 65 66 64 66 67 67
89 88 94 92 94 93 80 84 74 68 70 78 85 85 85 91 94 95 94 93 88 85 78 79 74 71 65 70 66 65 76 72
84 82 83 86 83 81 76 74 74 74 74 78 79 83 84 90 91 93 94 90 89 87 81 74 76 79 73 68 78 69 72 74
80 79 80 75 70 72 70 67 64 62 65 70 72 78 84 90 93 94 94 93 91 87 82 78 77 77 76 69 76 70 72 72
92 84 79 74 75 73 78 74 68 71 79 77 78 87 85 90 93 94 95 95 93 93 92 88 88 90 87 88 84 81 74 72
96 90 86 80 79 80 80 77 76 76 79 79 78 88 94 92 93 95 96 96 95 94 94 93 92 92 89 90 85 87 85 82
96 92 88 82 81 79 78 76 78 72 70 72 75 88 91 93 95 96 97 96 96 96 97 96 95 92 91 88 88 85 85 82
90 89 87 83 81 79 76 74 74 73 73 77 88 90 93 91 94 95 94 94 96 97 98 97 97 96 94 94 87 84 87 86

GFSFLT2_sfc_rhum_051.txt.gz
RH
95 87 85 89 86 88 86 86 86 85 82 79 80 82 81 77 77 82 80 86 85 83 82 81 79 78 80 81 80 70 47 47
94 96 91 93 88 86 88 84 81 80 82 82 84 83 80 78 83 86 86 86 84 81 81 81 80 81 81 81 81 74 48 47
90 92 92 94 93 86 84 79 79 80 84 86 81 64 60 60 73 85 84 83 81 81 81 82 81 82 82 82 74 50 49 47
96 96 95 95 92 87 84 79 77 77 75 75 65 68 58 52 69 81 84 83 82 82 82 82 67 52 59 70 50 53 50 49
99 97 95 93 92 94 94 91 92 87 81 68 67 60 61 55 58 57 65 73 61 62 65 51 56 52 51 54 57 56 51 49
98 96 97 94 96 97 98 95 94 89 82 73 67 62 62 65 55 52 56 56 65 62 57 61 60 56 57 61 59 54 52 51
94 94 95 99 94 98 98 96 92 92 83 66 64 58 62 52 53 45 47 52 54 55 57 56 58 58 57 58 60 61 61 53
90 89 90 96 94 96 98 96 94 96 88 76 74 65 66 52 51 46 49 44 47 49 52 54 52 53 59 58 60 59 61 62
85 88 87 93 94 93 96 94 94 92 90 81 72 67 66 59 50 48 49 48 48 46 52 52 52 51 54 56 55 59 57 63
92 88 94 92 96 94 94 96 95 92 91 74 69 61 63 62 53 49 50 51 47 44 44 48 48 48 50 48 46 47 50 53
97 96 94 93 97 97 96 92 94 89 89 72 71 61 59 56 49 51 58 56 55 49 49 45 48 46 44 45 47 45 49 41
96 97 96 92 94 95 95 88 79 86 85 76 68 57 60 60 54 59 54 56 56 52 52 49 45 42 31 43 51 48 47 48
94 96 97 95 97 94 90 91 79 79 71 68 68 59 61 66 58 63 58 56 59 62 56 55 52 50 44 43 43 48 52 47
91 92 94 93 94 92 85 80 75 70 75 80 68 67 64 68 68 67 66 65 67 70 64 57 51 51 45 45 47 44 46 46
85 89 90 88 89 96 91 80 73 66 70 79 71 72 60 63 72 74 82 76 64 70 67 63 56 56 52 46 53 52 45 44
77 80 87 84 88 92 84 72 71 63 61 71 72 71 72 68 69 75 77 75 76 73 67 64 61 59 54 47 56 50 52 58
77 75 76 80 81 83 80 73 64 65 63 71 69 66 64 66 70 74 75 76 77 78 80 77 72 67 65 60 59 62 67 83
77 74 73 71 76 74 76 72 63 61 67 66 60 60 68 70 66 73 74 79 81 81 81 80 78 73 69 65 61 79 81 79
81 76 73 72 71 72 72 70 68 67 64 64 64 70 72 72 71 75 75 75 77 80 83 83 82 81 76 74 71 73 83 76
84 80 75 72 73 72 69 68 65 64 64 60 67 68 67 69 74 72 71 73 75 79 82 83 83 86 84 83 90 92 91 88

GFSFLT2_sfc_rhum_054.txt.gz
RH
81 82 66 82 81 88 90 86 84 84 84 83 83 84 83 80 79 80 81 84 84 84 83 81 79 78 80 78 74 72 34 34
89 90 82 69 80 94 89 86 84 83 85 85 87 84 81 82 82 84 87 86 84 83 82 81 79 81 82 82 74 68 33 32
94 97 94 82 85 90 81 80 83 83 84 88 83 61 62 61 66 88 87 86 83 83 83 82 83 82 82 79 74 33 34 32
92 97 91 82 79 92 93 88 76 80 78 75 64 67 61 46 77 89 87 85 84 84 84 84 65 42 48 68 34 38 34 36
86 95 91 90 97 98 97 97 92 92 86 77 69 59 50 58 65 65 64 70 48 56 59 38 38 36 40 38 41 40 35 36
96 92 96 96 97 98 95 95 91 96 92 78 68 55 55 54 50 49 52 45 48 46 41 42 42 38 40 44 44 38 36 37
90 96 94 95 95 97 97 93 92 94 89 65 56 56 53 44 45 43 43 41 44 43 41 42 41 39 41 43 43 42 43 36
92 89 92 94 96 96 98 94 96 95 81 56 51 52 52 43 41 36 37 40 40 38 38 37 35 36 41 41 43 43 44 43
85 91 91 94 94 98 96 95 94 93 65 61 50 54 58 53 36 34 35 35 38 36 39 35 33 33 40 41 40 43 41 45
82 80 91 91 93 95 95 96 96 93 75 63 58 52 56 50 36 35 33 35 34 36 38 36 35 33 37 37 36 38 42 43
87 86 91 90 92 95 93 94 93 95 81 58 58 49 46 41 36 39 44 36 36 35 36 36 36 33 33 34 34 32 36 32
87 86 88 88 90 94 94 95 94 94 80 59 53 46 50 44 38 44 43 38 40 39 40 36 34 32 24 30 34 33 33 34
94 92 92 93 94 94 94 93 88 86 76 64 64 52 50 46 38 46 43 42 43 49 44 44 37 36 32 34 35 39 41 34
89 91 88 89 90 91 89 87 76 73 68 64 62 63 48 47 44 45 44 41 52 55 53 47 40 40 38 37 43 38 36 37
86 88 91 87 90 90 92 94 92 81 72 59 60 58 46 44 50 47 49 45 49 58 57 55 48 49 47 43 47 48 38 36
74 86 87 89 91 88 90 88 87 77 72 55 50 57 55 46 49 53 55 50 51 53 52 56 55 50 48 42 47 44 43 48
66 76 82 85 85 84 87 83 76 73 70 71 66 60 55 50 52 58 60 57 61 62 62 64 55 66 53 48 51 47 51 52
63 71 76 82 84 81 82 79 71 67 74 73 78 74 67 64 56 64 67 64 63 70 67 68 66 61 64 55 55 52 51 52
58 63 72 79 82 78 75 74 69 65 63 62 61 71 73 72 67 61 60 63 60 59 67 67 68 67 68 63 56 54 57 54
59 56 57 65 76 75 66 64 59 58 55 51 51 50 52 63 59 57 57 55 57 58 56 59 62 67 68 65 58 59 66 73

GFSFLT2_sfc_rhum_057.txt.gz
RH
78 76 72 90 86 92 95 89 87 86 86 85 83 82 80 80 81 82 81 83 84 83 83 82 79 78 74 73 71 70 32 34
80 78 79 70 81 91 95 94 81 87 86 87 87 83 81 81 82 84 85 85 86 84 84 82 80 80 79 74 68 65 31 32
94 83 78 73 70 89 95 95 76 84 86 89 87 62 64 69 75 88 87 87 86 85 84 84 83 80 75 72 76 29 30 33
87 93 81 76 80 94 92 95 90 78 65 69 78 79 65 53 81 89 88 87 86 85 85 84 64 40 44 65 39 32 32 37
94 92 88 79 93 95 99 92 90 90 80 77 84 86 65 73 81 80 67 71 60 59 61 41 38 36 41 40 37 35 33 38
87 92 85 87 90 88 97 98 98 97 90 84 90 80 71 77 68 62 61 51 52 46 42 41 39 37 39 42 40 33 34 40
96 95 86 85 87 93 94 97 97 95 94 88 92 66 73 64 66 61 50 45 45 43 38 37 38 38 39 42 39 38 39 39
92 98 96 95 94 94 96 97 94 95 92 88 82 60 70 62 61 49 43 40 39 37 37 37 34 36 41 41 40 40 38 43
90 94 93 95 94 96 97 98 95 94 92 88 72 60 62 53 48 44 40 39 40 36 38 34 32 33 39 40 39 42 39 41
80 88 95 95 94 96 98 97 96 93 92 82 61 53 57 52 41 40 36 38 36 34 35 33 32 33 38 38 37 39 41 42
77 84 89 92 94 97 97 95 96 94 90 59 58 52 47 49 41 45 44 37 36 34 36 35 34 33 34 35 35 35 40 35
78 80 91 90 92 96 96 97 97 95 77 60 56 48 51 54 50 57 48 36 35 35 43 36 35 33 26 31 35 32 32 35
83 87 89 89 93 95 97 96 96 94 86 58 61 51 50 58 52 61 58 44 42 46 40 41 35 34 30 32 34 36 37 33
86 82 89 84 85 82 81 89 92 88 82 76 57 56 48 52 54 54 58 46 50 53 52 43 35 34 33 34 40 37 37 40
86 84 83 80 82 80 84 83 88 90 82 74 68 63 50 52 56 54 57 50 51 58 56 53 44 42 45 39 43 41 39 40
76 84 79 77 83 87 87 86 83 75 73 65 48 60 60 55 48 51 54 49 52 59 52 56 53 50 50 45 52 51 57 68
65 85 83 79 77 83 86 78 71 69 73 71 60 64 78 62 50 54 55 52 56 57 62 65 57 56 53 52 55 51 54 56
67 76 86 85 80 81 83 83 81 77 76 79 61 61 67 69 50 56 61 64 66 62 67 66 66 60 70 58 60 58 56 62
58 66 75 85 86 83 80 73 80 74 71 70 71 74 74 69 63 61 62 67 70 73 76 74 72 72 72 71 65 59 52 50
50 55 58 76 83 82 74 69 69 62 67 61 62 68 69 71 63 60 62 63 64 66 67 68 72 73 72 66 66 58 53 53

GFSFLT2_sfc_rhum_060.txt.gz
RH
82 85 80 90 91 94 96 97 95 88 87 85 84 83 82 80 82 81 84 85 85 84 84 82 79 74 74 71 71 72 46 52
86 85 86 85 89 95 94 94 88 98 87 86 84 83 82 84 84 85 86 86 86 85 84 82 80 76 70 70 71 68 44 50
88 87 85 86 95 93 94 92 91 97 88 87 84 74 78 81 82 87 88 88 87 86 86 84 80 73 70 73 74 46 45 55
88 90 88 92 95 96 95 95 96 97 84 85 78 81 79 73 84 90 90 89 87 87 86 81 67 65 67 70 62 43 50 58
86 89 87 92 96 97 99 98 99 100 90 88 92 92 82 86 91 91 89 87 80 82 77 57 53 56 60 62 60 44 52 57
86 88 88 90 89 95 95 97 97 98 93 89 90 94 90 85 86 79 74 69 70 70 64 60 56 54 59 60 54 46 56 63
88 90 85 86 90 94 96 96 96 95 92 88 94 94 92 88 79 69 62 63 64 61 59 53 57 54 58 56 54 49 58 62
94 95 91 88 89 92 94 95 95 94 91 88 90 93 92 84 82 70 61 59 58 55 55 58 57 56 60 57 53 48 54 62
92 98 96 93 88 90 96 94 94 93 91 88 87 93 80 77 72 67 60 55 56 56 56 58 58 52 59 60 59 56 51 58
89 89 96 94 95 95 96 95 95 92 91 88 85 81 70 75 71 67 56 52 54 60 59 58 60 60 63 63 62 59 58 54
86 94 97 96 96 97 98 98 97 92 91 88 85 79 68 77 86 83 63 63 64 58 62 58 61 60 59 63 63 62 63 50
82 87 91 93 96 98 98 99 96 93 91 85 84 67 65 75 64 69 65 61 62 62 61 61 60 59 38 50 62 62 63 66
81 87 92 94 97 98 98 98 97 94 92 78 70 64 64 65 66 65 63 59 57 61 62 62 64 60 59 65 62 59 63 60
81 83 89 89 91 87 91 93 96 92 92 68 65 65 60 62 66 66 66 68 65 65 59 64 61 62 61 62 69 65 61 60
87 82 84 84 86 87 92 92 94 94 94 78 62 63 55 56 68 69 71 73 71 70 68 67 65 66 60 60 66 69 60 61
86 82 83 82 82 85 90 90 91 74 84 82 63 70 61 55 60 66 72 71 73 75 69 74 74 68 66 54 71 78 83 82
83 83 82 80 80 80 82 83 76 68 78 82 72 72 76 62 65 72 70 66 67 76 79 77 77 85 70 78 77 79 79 90
81 85 81 80 80 80 82 81 79 70 75 74 71 68 78 79 64 70 73 76 72 78 82 82 78 83 86 82 81 80 81 86
70 83 86 82 83 81 81 79 77 73 73 71 67 66 68 84 78 76 73 71 76 81 85 85 86 85 82 86 86 82 76 77
67 71 78 84 82 82 80 76 76 73 70 68 68 63 64 68 77 72 73 70 71 80 85 83 80 86 83 75 84 84 78 74

GFSFLT2_sfc_rhum_063.txt.gz
RH
92 91 86 89 93 95 94 94 96 96 92 87 85 83 83 81 82 83 85 85 86 83 82 81 78 78 72 76 71 72 64 66
93 90 92 93 98 95 93 93 92 94 94 95 90 82 83 85 86 87 87 87 86 83 83 79 78 72 71 72 72 71 63 67
93 93 93 97 97 93 91 89 89 93 94 96 90 81 84 82 88 89 89 89 87 85 83 78 74 71 74 73 67 60 64 67
96 94 97 96 96 96 96 94 96 93 94 95 92 86 82 85 90 90 90 89 88 86 82 77 68 66 66 67 55 61 65 68
96 96 97 98 98 98 98 98 97 97 96 96 93 92 91 94 93 93 89 90 84 78 76 70 62 64 63 66 57 63 65 66
96 96 96 97 96 96 97 97 99 98 98 96 96 96 96 94 91 89 87 88 91 86 77 68 59 59 60 68 58 64 67 72
96 95 94 97 97 98 97 97 97 96 97 93 94 94 94 94 86 82 79 84 83 75 73 65 58 57 61 56 60 67 68 71
96 95 94 95 98 95 97 97 95 96 93 92 86 93 93 90 76 71 76 74 70 63 64 67 61 61 65 56 60 66 68 74
98 97 95 94 96 96 97 97 96 95 91 86 82 87 86 88 69 67 69 68 59 66 68 64 68 64 64 62 58 67 70 73
94 95 96 96 97 98 97 96 96 93 90 84 84 79 82 88 78 65 68 63 61 62 63 62 69 69 73 70 63 65 69 72
96 95 98 97 97 98 97 96 95 92 91 87 85 78 76 85 85 79 67 66 68 62 64 61 68 72 68 71 72 71 69 63
91 96 97 97 97 98 98 98 97 94 90 82 84 74 78 85 82 86 80 77 72 61 59 66 64 65 49 60 74 74 72 73
91 95 98 97 98 98 99 98 98 97 91 79 81 74 73 73 70 74 77 81 62 56 65 63 69 69 68 76 73 73 73 71
89 91 95 94 92 93 93 96 96 93 92 88 76 74 66 70 69 74 71 77 76 66 64 68 65 70 65 70 72 66 70 70
88 89 92 91 91 93 93 94 96 96 93 86 73 71 61 62 64 70 70 70 71 67 64 60 63 66 60 66 77 73 74 72
84 86 89 88 89 91 92 91 93 84 82 72 66 70 67 64 64 66 69 78 79 72 61 68 68 66 72 63 72 82 86 86
92 86 86 85 84 86 84 83 78 80 86 86 75 74 71 65 73 72 77 79 83 80 76 62 79 83 71 70 80 88 87 92
95 90 87 85 85 84 86 83 83 79 94 95 85 76 72 73 69 76 75 76 79 88 85 73 74 85 89 86 81 79 86 92
94 91 89 85 85 85 86 83 80 76 84 84 80 81 83 85 76 83 87 76 76 82 88 85 83 86 90 88 90 88 85 86
88 91 84 85 85 88 84 81 82 73 72 76 75 73 73 74 79 72 83 83 85 86 87 82 82 89 88 93 85 85 86 83

GFSFLT2_sfc_rhum_066.txt.gz
RH
95 92 92 94 95 91 92 92 84 87 94 88 88 87 85 83 84 85 84 83 86 85 84 80 76 78 79 79 78 74 66 66
96 94 93 98 97 96 96 97 97 93 94 96 96 91 84 83 85 86 86 87 86 85 82 78 78 78 79 80 79 76 71 75
96 96 97 98 96 95 94 93 96 94 92 96 95 95 85 86 85 88 88 88 86 84 80 79 79 78 80 79 74 66 69 76
96 97 99 98 95 96 97 96 95 93 93 97 98 98 95 86 90 89 89 89 88 84 81 80 71 65 69 73 67 67 71 77
97 99 98 98 98 99 98 99 98 97 93 90 96 97 92 94 94 92 88 87 84 81 83 70 67 65 63 67 69 68 72 72
98 99 98 98 96 98 98 98 99 99 95 91 96 99 97 93 85 91 94 91 94 92 84 67 63 64 64 70 69 70 76 75
99 98 98 98 97 96 97 97 96 96 96 93 92 95 95 93 88 89 92 90 92 87 77 63 60 66 67 66 70 72 76 75
99 97 98 98 98 97 98 98 96 96 97 93 92 92 94 93 87 84 85 81 79 81 77 64 63 65 65 66 70 73 76 81
97 98 97 98 95 96 97 97 97 96 96 94 92 90 91 90 80 80 77 72 75 79 80 70 65 64 65 66 73 74 78 81
98 95 97 98 97 97 99 97 98 96 93 90 91 86 85 83 70 71 70 69 63 75 81 78 72 76 77 69 73 76 76 79
98 98 98 97 98 98 97 97 97 96 96 89 87 83 82 79 73 74 63 63 63 69 81 75 73 79 72 76 74 82 81 72
95 98 98 96 98 97 98 97 97 96 93 82 85 76 81 84 73 83 67 66 65 70 76 72 66 72 56 69 80 80 79 82
97 97 98 97 98 98 99 98 98 96 94 82 84 77 81 86 74 77 75 80 70 67 70 64 72 74 72 79 80 87 81 80
96 96 97 97 96 94 96 96 97 94 95 92 83 83 76 80 82 78 81 84 86 69 66 75 69 69 71 75 77 71 75 79
95 95 95 93 92 95 98 96 98 99 98 97 93 87 72 66 76 73 78 82 78 73 69 62 66 75 64 71 74 73 73 73
95 94 91 90 92 92 94 90 96 91 92 91 93 85 77 68 71 72 77 78 84 75 66 67 67 63 71 61 62 74 80 79
96 94 90 89 92 88 92 93 88 88 89 90 93 92 78 66 69 76 75 82 85 85 76 71 67 78 69 72 76 89 91 93
97 95 90 89 90 91 86 87 84 86 90 90 91 79 77 76 62 71 77 81 82 82 76 67 66 68 79 80 78 78 90 93
96 95 94 90 88 89 85 84 84 86 90 82 81 76 74 80 73 76 76 74 78 86 87 79 76 83 85 81 85 81 83 85
95 95 94 94 88 86 85 83 85 83 86 83 86 77 69 69 72 71 73 72 76 78 92 89 84 90 90 92 83 88 88 85

GFSFLT2_sfc_rhum_069.txt.gz
RH
99 96 93 96 96 92 93 89 88 93 91 88 87 88 88 87 85 84 85 85 87 87 86 81 83 85 85 83 80 77 70 68
98 97 97 97 98 96 94 96 97 98 96 94 93 94 90 90 88 86 87 88 87 84 80 81 83 85 83 82 80 77 71 70
97 97 98 98 98 96 93 91 90 92 96 98 96 95 95 86 89 87 89 89 86 82 81 83 84 83 82 82 75 71 72 78
97 99 99 99 97 98 96 92 94 96 95 95 98 98 98 89 92 90 89 89 86 83 85 84 80 77 77 76 70 75 75 79
98 99 97 97 99 99 99 99 98 97 94 94 92 97 98 95 98 93 92 86 80 78 78 72 72 73 73 74 73 74 78 80
99 95 96 97 97 98 99 99 99 98 98 97 97 97 97 97 97 92 95 90 86 78 72 70 68 67 71 75 73 76 84 85
98 95 94 98 98 98 98 98 98 97 98 95 96 95 95 97 93 93 98 97 84 77 71 67 68 70 71 72 76 82 86 84
98 98 98 98 98 98 98 99 98 98 97 94 94 92 95 92 86 92 95 91 90 75 65 68 70 70 71 72 76 80 86 91
97 98 96 98 98 97 98 97 98 97 97 93 93 91 93 90 89 94 91 89 88 81 76 74 72 68 69 75 78 84 87 91
99 96 95 98 99 97 99 99 99 98 98 95 88 91 88 89 85 83 80 79 76 76 81 75 73 73 75 79 81 84 87 90
99 98 96 98 98 98 99 98 99 98 99 99 96 91 86 82 78 79 76 71 70 71 86 70 76 82 76 80 87 86 88 79
96 91 97 98 98 98 99 99 99 98 98 96 97 90 83 82 76 81 72 66 69 74 71 80 80 79 67 78 83 92 87 91
96 90 98 98 98 98 98 99 99 98 98 90 94 92 83 77 76 75 70 68 62 74 83 78 88 82 81 85 85 87 90 89
98 90 94 96 97 94 96 97 97 96 97 95 90 87 88 80 78 76 70 70 77 74 78 84 82 79 79 78 88 78 81 89
97 96 89 89 94 96 97 98 99 99 99 97 94 90 90 88 78 78 77 74 78 75 78 72 77 84 71 76 81 88 80 81
96 87 89 93 94 95 94 94 97 96 95 96 96 90 90 91 89 80 81 82 82 76 70 67 68 71 78 65 66 77 85 83
91 89 96 94 92 91 94 90 88 92 94 95 97 97 92 83 84 89 80 86 83 82 80 72 64 72 76 77 77 82 84 87
91 91 96 94 92 93 97 89 89 94 94 95 96 96 94 93 87 87 84 84 88 90 87 79 74 66 76 81 79 80 86 92
88 90 92 95 91 95 95 96 90 91 91 93 96 94 95 94 87 89 90 90 89 94 94 95 85 79 74 74 81 74 74 73
85 89 86 92 91 90 88 92 86 88 88 88 88 86 83 79 85 90 88 89 91 92 93 94 92 88 83 81 73 78 81 79

GFSFLT2_sfc_rhum_072.txt.gz
RH
99 91 91 97 97 96 95 94 90 92 88 90 86 87 87 82 82 82 83 86 89 89 89 88 87 87 86 85 83 79 77 75
99 96 96 98 99 98 93 93 92 87 97 96 91 88 84 87 82 84 88 88 88 88 87 87 88 87 86 84 82 78 74 73
99 99 99 98 97 98 94 93 93 93 94 95 99 98 90 88 85 89 90 90 88 84 85 88 88 86 84 83 75 76 70 71
98 99 99 99 98 98 95 94 94 94 95 93 95 98 98 89 91 86 90 89 86 82 87 89 85 83 80 78 73 74 74 76
98 98 97 98 99 99 98 97 96 97 96 96 93 95 96 97 97 94 95 88 80 84 89 83 85 83 84 81 79 80 78 81
98 96 98 97 96 99 97 98 98 99 97 95 96 97 98 97 98 99 96 88 86 89 84 85 81 80 78 78 78 78 84 84
96 95 97 98 98 99 99 99 98 97 98 95 95 97 96 93 96 98 94 92 86 83 80 80 80 79 76 76 78 83 85 84
94 95 95 96 96 98 99 98 99 98 98 95 92 94 94 89 95 96 96 84 82 78 74 76 77 78 79 77 78 84 84 87
95 96 95 93 95 98 98 97 98 99 97 95 94 92 92 90 92 96 94 90 89 79 78 82 81 77 80 78 79 85 87 89
93 92 95 93 95 98 98 97 98 96 98 96 93 91 90 92 94 95 92 87 80 73 76 80 83 83 85 83 80 84 90 91
93 95 95 92 98 98 99 99 98 98 96 97 92 90 92 92 94 93 85 84 81 74 81 76 82 88 84 83 85 89 91 84
91 94 95 96 98 99 99 99 99 99 98 99 93 96 94 95 91 90 78 77 78 71 73 81 82 82 74 89 92 90 92 93
92 96 98 98 98 97 99 99 99 99 98 99 95 96 94 87 84 82 75 74 72 72 70 72 90 84 90 94 94 91 91 91
89 87 98 98 97 92 97 97 99 97 98 98 98 96 92 89 84 76 73 70 78 72 71 82 85 81 87 89 97 88 85 87
90 87 94 96 94 97 98 99 99 99 99 99 96 96 93 91 89 76 73 66 74 77 82 79 88 90 77 84 93 94 89 88
90 88 85 94 95 94 94 93 97 97 98 96 97 93 92 90 89 86 73 71 78 73 75 79 80 81 84 73 74 82 90 90
98 91 88 92 94 93 96 96 92 95 97 97 97 97 95 92 90 91 81 80 85 82 82 78 79 81 81 78 79 80 80 87
95 85 84 90 91 93 94 93 93 98 99 98 98 98 97 95 96 92 90 90 89 89 86 76 78 80 79 81 80 79 84 86
87 88 90 90 95 94 93 92 90 94 94 95 97 98 98 96 94 96 94 87 90 91 89 87 84 85 83 75 82 80 83 81
90 88 86 97 98 98 94 96 96 89 92 93 94 92 91 91 93 94 94 91 91 92 91 94 94 94 88 87 79 74 79 74

GFSFLT2_sfc_rhum_075.txt.gz
RH
91 90 90 96 95 94 95 93 92 93 94 86 85 86 87 82 81 80 83 86 90 90 90 90 88 88 87 86 84 77 52 51
92 89 92 91 86 97 95 93 89 87 90 96 96 93 88 83 84 82 85 90 90 90 89 89 89 88 86 85 84 78 50 50
93 89 88 93 88 92 92 89 90 92 93 95 94 83 87 86 88 87 88 93 90 90 89 90 89 87 85 84 75 50 52 49
89 92 95 93 86 90 83 80 79 86 91 91 88 87 90 90 89 91 85 93 91 89 90 90 76 59 60 72 51 54 51 52
88 94 94 92 93 95 91 87 87 94 91 90 87 89 93 94 97 95 94 91 78 78 76 60 63 58 58 57 57 56 51 50
87 94 94 90 89 94 93 92 94 96 94 92 93 91 94 94 95 97 96 97 74 69 65 66 67 62 61 62 58 53 51 52
88 92 93 94 92 94 95 90 89 94 96 93 91 90 94 93 92 93 96 95 74 68 65 65 66 63 60 60 61 58 58 51
88 88 90 92 93 94 97 95 95 96 96 93 85 87 93 94 92 94 95 92 73 64 62 63 60 59 62 61 60 58 57 58
88 91 90 92 90 92 95 98 97 98 97 94 90 89 93 89 83 96 96 83 69 63 64 60 59 56 60 60 58 62 59 59
84 87 92 92 92 92 92 97 98 98 97 94 92 86 87 89 90 95 95 85 68 61 61 62 61 58 59 58 56 59 61 61
90 87 92 92 92 92 90 95 97 97 98 98 97 92 89 92 93 95 94 75 67 61 62 62 63 59 58 58 60 59 63 60
87 88 89 90 92 93 96 98 97 96 95 97 93 98 92 95 94 93 94 80 63 59 66 63 61 60 53 60 62 60 61 63
85 90 91 93 90 97 99 98 98 98 97 91 94 94 95 96 94 92 89 78 65 69 64 69 66 62 66 67 66 68 69 66
84 85 89 89 78 89 93 95 96 94 92 98 93 94 97 94 94 91 83 73 72 68 68 67 64 66 63 64 75 70 68 70
83 81 85 83 86 85 95 95 95 98 98 99 96 96 96 93 94 87 80 72 73 70 68 68 69 70 66 57 73 68 70 69
80 78 80 84 88 90 95 88 96 95 94 97 98 93 95 94 89 84 76 70 73 71 63 68 72 77 68 58 60 64 66 79
82 78 80 86 85 84 86 83 74 88 93 96 96 98 93 91 91 87 79 69 74 76 73 68 65 68 65 66 62 60 62 68
86 84 83 88 85 84 90 90 88 89 95 90 97 98 98 95 92 92 86 80 82 81 78 70 68 69 66 65 62 60 61 59
88 81 85 88 88 90 91 89 89 90 93 93 97 97 98 98 96 95 92 88 82 82 84 81 75 73 72 68 69 65 66 56
82 83 84 86 88 90 88 87 88 87 90 90 89 93 91 95 96 94 92 92 91 88 88 85 85 85 80 74 67 68 65 58

GFSFLT2_sfc_rhum_078.txt.gz
RH
72 81 77 94 93 94 94 96 94 95 94 85 87 92 91 79 80 79 80 84 90 92 92 91 90 88 88 85 83 77 40 40
83 82 79 75 78 94 94 93 93 94 92 89 86 93 96 96 88 84 83 86 92 92 92 90 89 88 87 85 82 76 39 39
80 84 78 81 73 75 92 93 91 93 90 95 93 81 91 92 92 86 88 95 93 92 92 90 89 88 87 83 80 37 38 34
70 85 81 83 79 78 70 64 62 64 68 77 71 79 80 68 78 87 89 95 95 94 93 92 78 55 56 74 39 40 37 36
58 76 69 75 87 83 62 55 59 72 72 76 82 74 68 65 82 85 90 89 95 87 79 58 58 56 50 46 41 45 36 35
57 72 73 85 82 82 74 64 59 72 67 75 79 76 78 70 77 77 95 94 95 87 71 68 64 52 48 47 47 39 37 35
55 78 83 82 87 84 87 71 77 82 77 70 64 72 69 84 86 88 94 96 92 86 66 68 59 50 49 49 47 45 44 36
55 70 77 73 76 87 89 80 76 88 87 79 68 77 83 85 89 92 94 96 91 74 61 67 53 47 50 49 48 44 44 40
63 77 80 75 70 82 91 92 88 85 82 83 82 80 88 89 85 94 94 95 93 76 65 59 50 45 50 49 46 46 41 43
62 72 80 74 80 82 87 91 91 87 89 88 83 77 86 84 86 94 94 96 95 77 60 56 52 46 48 45 43 43 44 44
62 71 75 78 81 85 86 88 90 94 94 95 89 80 78 86 91 90 90 96 95 72 57 53 54 47 46 43 44 44 46 38
61 76 78 77 77 86 88 91 93 94 96 95 94 96 92 90 90 93 88 94 93 72 64 58 50 46 42 44 48 46 45 44
60 81 78 81 86 92 94 94 94 95 91 88 90 92 99 95 95 94 90 91 89 78 58 58 56 52 50 56 54 54 54 50
59 70 74 74 72 76 84 91 93 89 90 90 87 82 92 97 96 94 93 91 89 76 67 58 55 53 52 54 74 70 61 56
56 61 64 68 66 67 71 86 88 92 92 90 88 80 91 96 94 95 94 90 88 72 64 61 59 55 50 47 60 57 60 55
54 58 63 62 59 65 71 77 90 77 77 96 86 89 96 96 93 94 94 89 84 73 57 62 57 61 56 42 42 38 52 66
58 59 65 58 58 62 63 80 79 70 82 93 94 93 94 97 95 96 94 88 79 69 67 66 58 54 57 57 55 52 47 44
62 63 67 61 60 65 74 77 78 73 85 87 98 98 98 96 94 94 91 84 75 73 71 66 61 59 60 65 53 53 51 46
72 62 70 68 62 62 67 64 74 75 72 81 94 97 98 98 95 92 91 86 79 72 76 72 67 63 62 56 58 54 44 45
76 67 73 72 64 59 71 71 78 77 76 70 78 86 87 88 96 94 88 86 85 84 84 82 78 76 71 66 59 61 52 49

GFSFLT2_sfc_rhum_081.txt.gz
RH
63 70 75 93 94 94 95 94 93 96 95 90 83 89 95 91 83 80 80 80 88 93 93 92 91 90 89 86 83 81 56 56
64 69 70 68 70 95 94 94 95 93 90 91 91 94 95 94 97 90 88 86 84 92 95 92 91 89 87 82 81 73 41 44
76 76 68 64 68 69 92 93 91 92 86 89 91 74 79 87 94 95 92 91 82 95 94 92 91 89 86 81 78 35 44 40
66 78 69 64 50 77 66 65 63 64 58 67 66 78 76 80 87 91 95 95 95 96 94 93 86 68 63 74 46 47 32 34
49 73 69 70 58 75 59 59 58 67 64 68 72 84 81 84 90 85 88 92 91 95 92 76 67 61 56 50 48 39 32 39
45 56 58 60 52 67 54 56 69 58 64 72 82 80 81 90 69 77 82 86 94 95 91 76 66 60 52 46 53 35 32 46
44 50 54 60 80 84 74 53 52 68 63 71 76 69 77 78 69 77 69 80 94 95 91 74 63 56 49 55 40 39 36 40
42 56 60 68 78 81 78 72 68 66 67 66 69 74 72 75 79 74 83 88 91 92 90 78 64 58 51 46 42 39 40 39
45 60 63 64 64 72 72 82 83 82 77 74 70 68 73 73 72 84 88 95 93 93 93 78 52 51 50 51 39 40 39 38
42 52 64 61 59 68 74 78 77 86 84 87 70 66 78 85 86 90 91 96 96 95 94 75 67 45 56 41 40 39 40 40
45 58 64 65 61 78 78 83 89 93 87 88 77 77 80 90 84 93 93 95 97 95 93 68 55 57 56 39 45 38 41 34
47 58 61 61 64 74 68 84 86 90 85 83 78 83 87 87 90 95 91 96 97 96 91 66 51 52 43 45 60 51 38 38
48 59 60 59 61 69 72 76 73 83 84 85 91 86 84 87 95 95 93 92 95 94 91 70 66 57 60 65 68 66 61 38
48 56 59 58 54 58 61 71 69 68 75 81 84 86 87 98 95 95 90 93 95 96 92 80 62 57 61 56 84 73 62 60
47 54 57 58 54 57 63 81 73 78 78 81 77 76 76 85 96 95 94 93 93 89 92 78 70 66 56 52 66 62 60 62
45 51 54 56 56 61 72 73 73 65 66 71 73 74 80 89 96 94 94 94 92 89 88 85 69 63 58 43 50 39 53 68
47 49 51 53 54 52 56 56 59 59 62 77 88 84 92 97 96 96 96 95 93 91 89 82 69 63 56 54 57 54 63 54
50 50 50 51 52 52 56 56 60 62 69 81 94 93 95 98 98 97 95 94 94 91 87 76 69 63 60 59 56 61 55 48
50 49 54 51 53 54 54 56 65 74 70 78 94 98 97 98 98 98 98 96 92 89 87 77 73 68 68 62 60 58 51 58
50 49 58 52 53 54 53 53 57 57 61 64 78 88 92 96 96 96 95 95 93 90 79 73 75 74 72 69 64 70 68 57

GFSFLT2_sfc_rhum_084.txt.gz
RH
82 81 83 94 96 96 95 92 93 92 94 93 91 93 93 89 90 93 91 85 83 92 94 93 92 91 90 92 89 79 78 85
81 82 83 85 89 96 95 94 93 92 94 94 94 91 91 93 94 90 96 97 89 93 95 92 93 93 90 85 82 82 77 77
81 81 81 82 80 86 93 94 95 94 92 93 96 86 92 94 93 94 94 97 97 92 96 96 95 94 91 89 82 60 62 62
77 83 82 80 62 84 82 80 83 85 79 85 85 88 90 91 94 95 95 97 95 96 96 95 93 93 93 90 73 62 63 65
75 83 81 81 72 82 79 77 77 80 80 81 86 92 91 94 93 92 94 97 96 96 96 91 86 85 84 90 69 57 58 63
68 75 76 81 73 78 78 76 78 78 82 81 92 96 88 90 86 90 93 92 96 96 96 91 84 80 70 71 64 52 64 66
55 70 72 75 77 78 81 76 77 82 84 83 85 94 89 88 86 88 86 89 94 97 96 91 84 79 67 64 59 52 60 66
54 62 67 70 80 86 88 85 80 81 88 82 82 88 90 82 83 84 86 90 94 96 96 93 93 84 79 65 56 54 57 65
57 68 70 79 79 85 88 86 84 81 82 81 82 84 86 82 83 85 87 90 94 94 96 96 96 89 71 62 56 53 54 64
53 62 74 78 79 82 80 85 90 90 88 88 82 79 83 85 90 91 92 96 96 95 95 96 96 91 63 60 53 57 57 55
56 69 74 76 76 79 82 84 89 92 93 91 85 79 79 89 86 90 94 96 96 95 97 97 97 92 59 62 58 60 60 47
59 67 74 74 77 83 85 92 90 92 95 95 88 87 85 91 92 95 94 96 97 98 98 98 94 80 48 55 63 60 60 64
62 71 75 72 82 84 87 92 89 94 92 90 88 89 91 93 95 95 93 93 95 95 98 97 97 75 76 74 74 72 64 63
62 67 69 68 72 74 71 75 82 84 84 87 88 90 90 92 96 94 93 96 96 95 96 97 96 79 68 75 89 79 74 67
56 64 65 66 66 67 71 76 80 77 87 90 88 88 88 91 95 95 96 96 97 95 96 94 92 88 61 67 86 89 86 81
54 60 61 64 65 67 75 79 82 76 80 87 84 83 87 91 95 94 94 94 96 95 95 94 94 79 79 57 63 67 81 95
55 61 61 63 63 69 74 78 74 74 80 84 86 90 89 92 94 96 96 96 95 94 97 94 95 84 71 77 68 72 64 80
58 62 62 62 65 71 75 74 71 75 84 88 96 94 92 95 96 96 94 94 96 95 95 94 94 89 80 74 73 77 73 78
58 59 61 63 66 67 69 71 72 72 80 87 94 97 98 98 99 99 97 96 94 92 95 96 94 92 73 74 77 74 67 70
58 57 57 62 65 64 66 69 72 74 78 85 91 95 95 94 98 98 99 96 95 95 92 94 92 91 81 83 80 77 75 74

GFSFLT2_sfc_rhum_087.txt.gz
RH
96 96 94 96 96 95 95 96 97 97 96 94 93 94 94 90 89 90 95 95 96 91 94 93 92 90 91 92 86 88 90 91
95 96 97 98 100 96 95 94 93 92 92 94 94 94 91 94 92 93 92 91 94 96 95 92 92 94 92 92 88 88 83 89
95 96 96 97 97 95 95 95 94 94 93 96 97 97 96 96 94 93 90 91 94 97 98 98 97 95 94 89 91 91 92 89
92 95 96 96 85 96 98 96 99 97 96 96 97 98 99 97 96 93 92 94 95 96 99 97 96 98 98 93 94 75 86 88
89 89 94 94 88 98 99 98 98 97 93 96 97 98 99 95 99 96 97 95 97 97 99 96 95 95 94 94 91 72 88 86
86 82 93 94 97 97 96 94 95 96 94 94 98 99 98 98 99 100 96 97 97 95 97 97 95 91 88 90 85 72 78 79
85 84 88 87 95 97 97 96 93 93 96 94 97 98 95 98 97 98 97 96 94 97 96 97 94 88 80 83 80 73 76 78
84 82 83 82 94 94 97 96 96 96 96 94 96 97 97 94 96 95 98 96 95 95 96 97 95 93 90 83 74 72 75 81
83 82 84 85 92 95 97 96 96 97 95 94 94 94 94 97 97 95 96 97 97 98 98 98 97 92 95 85 66 71 75 82
76 72 84 87 95 97 98 97 97 97 97 96 94 94 90 91 95 97 98 98 98 98 97 97 96 96 97 93 60 65 70 80
70 77 85 88 94 95 96 94 98 98 97 97 93 94 94 95 94 97 97 97 98 97 97 93 95 97 96 90 60 67 68 70
71 76 86 91 93 96 97 89 98 98 98 97 90 93 92 96 97 98 99 98 98 98 97 97 97 97 89 77 58 63 65 74
74 81 89 90 92 96 97 92 96 100 99 96 94 94 95 98 98 97 97 98 96 96 97 97 98 97 95 85 75 66 66 72
77 80 84 89 88 88 97 97 92 98 98 96 91 95 97 98 97 96 97 96 97 96 96 99 98 97 88 69 87 79 76 76
79 81 80 87 86 87 91 95 98 98 98 97 94 94 97 96 96 96 96 94 96 97 95 93 96 97 85 68 82 82 81 86
76 78 78 82 82 84 86 90 96 96 93 92 98 96 95 96 96 96 94 94 96 96 94 95 95 93 88 60 67 76 74 91
75 80 78 75 79 81 87 94 94 94 96 96 97 97 96 96 97 96 96 96 95 95 97 96 94 92 82 76 72 74 76 89
72 78 76 74 77 81 84 92 91 94 96 98 99 98 98 98 97 96 95 96 96 96 94 93 96 92 90 80 73 80 76 83
74 77 78 75 82 78 82 85 87 92 94 97 98 98 98 97 98 98 98 95 95 95 96 94 96 94 92 88 83 75 75 79
73 79 79 78 81 78 79 84 81 89 90 94 96 94 91 94 98 98 97 95 98 96 97 95 94 97 94 91 88 85 84 83

GFSFLT2_sfc_rhum_093.txt.gz
RH
98 98 97 97 98 98 98 97 97 97 96 96 96 96 95 93 92 90 90 89 88 88 88 89 88 88 90 96 94 95 98 98
98 98 98 98 98 98 98 98 98 98 97 97 97 96 95 93 92 93 90 90 89 89 90 92 88 89 95 96 96 94 97 97
96 94 94 93 94 98 98 98 99 99 98 98 99 98 97 96 95 92 92 94 92 94 96 94 91 94 97 97 96 97 97 98
99 98 96 96 96 99 99 99 99 99 98 98 99 99 99 97 95 93 94 95 95 96 95 91 92 95 99 98 99 98 98 98
98 98 98 98 98 97 98 98 100 99 98 98 99 100 99 99 100 99 99 96 99 97 96 96 96 97 98 98 99 99 99 99
96 96 97 97 98 98 94 93 98 100 100 99 99 99 96 98 98 97 99 97 98 98 98 98 95 97 95 98 97 98 99 99
96 95 96 96 98 98 99 95 96 99 99 98 94 96 93 95 92 93 95 94 98 99 99 97 97 98 98 97 97 97 98 99
95 96 94 96 97 97 98 98 98 99 99 94 94 93 94 91 92 93 85 86 95 99 98 98 98 96 99 98 96 96 98 98
95 96 95 96 96 97 98 98 98 98 98 95 92 93 93 91 92 91 87 88 92 99 98 99 98 95 97 98 96 96 98 98
86 87 94 96 95 96 97 98 98 98 98 97 95 98 98 98 95 97 93 94 95 97 98 98 97 97 98 98 97 96 97 98
79 91 91 94 95 96 95 97 98 98 98 98 96 97 97 98 97 95 95 95 94 96 97 94 98 99 98 97 97 98 95 93
62 87 89 92 96 97 98 98 99 98 98 98 97 97 97 96 96 95 95 94 96 96 97 97 97 97 93 97 98 96 97 97
52 87 91 94 98 97 98 98 98 99 98 96 97 97 98 98 95 97 92 94 93 95 98 97 99 98 98 99 98 97 96 97
52 78 92 92 92 93 94 93 96 96 97 97 95 97 98 97 96 96 94 96 96 97 96 97 98 97 98 96 99 99 99 97
71 77 90 88 89 96 99 98 99 100 99 98 98 97 98 96 97 96 96 96 98 97 96 93 95 98 96 95 99 98 97 96
68 78 86 88 92 94 95 89 92 90 95 93 98 98 98 97 97 97 97 97 97 96 95 94 94 97 98 95 93 92 93 99
79 82 86 88 93 88 90 88 90 98 97 96 98 99 98 96 96 97 97 96 95 96 98 97 96 94 93 97 98 94 97 95
92 91 91 89 90 90 85 89 95 98 98 94 99 99 98 97 94 97 96 96 97 96 96 95 95 93 94 91 88 90 94 97
91 92 90 93 89 93 92 93 92 94 96 97 97 96 96 97 98 98 97 97 96 96 96 96 95 96 92 92 85 85 87 90
96 92 93 92 93 93 94 92 91 93 94 95 92 87 89 92 95 94 98 97 98 97 97 96 96 96 95 95 92 92 88 86